Regional Weather Roundup
Issued by NWS

Home | Current Version | Previous Version | Graphics & Text | Print | Product List | Glossary On
Versions: 1 2 3 4 5 6 7 8 9 10 11 12 13 14 15 16 17 18 19 20 21 22 23 24 25 26 27 28 29 30 31 32 33 34 35 36 37 38 39 40 41 42 43 44 45 46 47 48 49 50
000
ASUS45 KBOU 200207
RWRCO

WEATHER ROUNDUP FOR COLORADO
NATIONAL WEATHER SERVICE DENVER/BOULDER CO
800 PM MDT TUE AUG 19 2014

NOTE: "FAIR" INDICATES FEW OR NO CLOUDS BELOW 12000 FEET WITH NO
SIGNIFICANT WEATHER AND/OR OBSTRUCTIONS TO VISIBILITY.

COZ001>005-013-030-031-200300-
...NORTHWEST COLORADO...

CITY           SKY/WX    TMP DP  RH WIND       PRES   REMARKS
CRAIG          MOCLDY    67  54  63 N3        30.00S
HAYDEN         CLOUDY    64  48  55 S6        30.03S
MEEKER         CLOUDY    65  55  70 SE3       30.02R
MOUNT WERNER   NOT AVBL
STEAMBOAT SPGS CLOUDY    65  49  58 E5        30.06R
WALDEN         MOCLDY    54  46  76 E10       30.15R
$$

COZ006>008-011-200300-
...WEST CENTRAL VALLEYS...

CITY           SKY/WX    TMP DP  RH WIND       PRES   REMARKS
GRAND JUNCTION RAIN      62  61  96 S8        29.98R FOG
MONTROSE       CLOUDY    63  57  81 NE9       30.04R
EAGLE          MOCLDY    68  46  45 E5        30.03R
RIFLE          TSTM      67  52  58 S22G35    29.97R
DELTA          RAIN      68  60  77 SW5       30.00R
NUCLA          NOT AVBL
$$

COZ017>023-064>068-200300-
...SOUTHWEST COLORADO...

CITY           SKY/WX    TMP DP  RH WIND       PRES   REMARKS
DURANGO        CLOUDY    69  47  45 SW10      30.07R
CORTEZ         MOCLDY    64  59  83 E8        30.06F
PAGOSA SPRINGS CLOUDY    63  44  49 CALM      30.16R
TELLURIDE      CLOUDY    61  45  55 SE5       30.21R
WOLF CREEK PAS NOT AVBL
$$

COZ009-010-012-014-032>034-037-058>063-200300-
...CENTRAL COLORADO...

CITY           SKY/WX    TMP DP  RH WIND       PRES   REMARKS
ASPEN          MOCLDY    58  53  84 VRB3      30.09R
BUENA VISTA    MOCLDY    60  53  75 CALM      30.12S
COPPER MTN     MOCLDY    54  36  50 S15       30.41S
BERTHOUD PASS  FAIR      41  41 100 MISG      30.45S
COTTONWOOD PAS CLOUDY    59  41  51 W5        30.26S
GUNNISON       CLOUDY    64  45  48 N3        30.11R
KREMMLING      MOCLDY    59  46  63 NW8       30.10R
LEADVILLE      MOCLDY    51  44  77 NE5       30.25R
MONARCH PASS   CLOUDY    50  37  62 S10       30.51S
SALIDA         MOCLDY    62  53  72 SW7       30.17S
SUNLIGHT       TSTM      48  46  93 SW3       30.31F
WILKERSON PASS CLOUDY    48  37  66 S9        30.39F
$$

COZ069>075-200300-
...SAN LUIS VALLEY/SANGRE DE CRISTO MOUNTAINS...

CITY           SKY/WX    TMP DP  RH WIND       PRES   REMARKS
ALAMOSA        CLOUDY    69  41  36 S9        30.07R
LA VETA PASS   CLOUDY    57  41  54 S6        30.30R
SAGUACHE       MOCLDY    68  43  40 SE3       30.11R
$$

COZ035-036-038>040-200300-
...NORTHERN COLORADO FRONT RANGE...

CITY           SKY/WX    TMP DP  RH WIND       PRES   REMARKS
DENVER INTL AP MOCLDY    68  54  60 SW13      29.93R
DMNS CITY PARK   N/A     69  53  55 E2        29.93S
AURORA         MOCLDY    67  56  67 S7        29.96S
FRONT RANGE AP NOT AVBL
ERIE MUNI ARPT MOCLDY    73  49  42 SE6       29.91S
BOULDER MUN AP MOCLDY    72  50  46 SE7       29.91R
CENTENNIAL     MOCLDY    68  55  63 CALM      29.96F
BROOMFIELD     NOT AVBL
FORT COLLINS   MOCLDY    75  50  41 SE14      29.89F
LONGMONT       MOCLDY    76  50  40 SE7       29.90S
$$

COZ041-046-047-076>085-087-088-200300-
...PIKES PEAK/PALMER DIVIDE AND SOUTHERN FOOTHILLS...

CITY           SKY/WX    TMP DP  RH WIND       PRES   REMARKS
COLO. SPRINGS  CLOUDY    70  47  43 NW16      29.99F
A. F. ACADEMY  CLOUDY    65  49  57 NE8       30.02F
ELLICOTT       CLOUDY    73  47  39 N12G20    29.97F
FALCON         CLOUDY    66  46  47 NW13G21   30.04F
FORT CARSON    CLOUDY    68  49  51 NW13      29.95F
LIMON          CLOUDY    73  47  39 SE10      29.96R
MONUMENT HILL  MOCLDY    61  50  67 SW10      30.07R
TRINIDAD       CLOUDY    72  49  44 SW18      29.96S
$$

COZ042>045-048>051-090-091-200300-
...NORTHEAST COLORADO...

CITY           SKY/WX    TMP DP  RH WIND       PRES   REMARKS
GREELEY ARPT   MOCLDY    72  50  46 CALM      29.89F
AKRON          CLOUDY    67  57  70 N5        29.88F
BURLINGTON     CLOUDY    82  45  27 SW20G33   29.84R
WRAY             N/A     81  53  38 NW30G36   29.80R
STERLING       LGT RAIN  72  63  73 CALM      29.86F
HOLYOKE        NOT AVBL
FORT MORGAN    CLOUDY    69  58  68 E8        29.86F
$$

COZ086-089-092>099-200300-
...SOUTHEAST COLORADO...

CITY           SKY/WX    TMP DP  RH WIND       PRES   REMARKS
PUEBLO         MOCLDY    78  52  40 W10       29.86R
LA JUNTA       MOCLDY    78  51  38 E6        29.83S
LAMAR          CLOUDY    78  54  43 SE10      29.77F
SPRINGFIELD      N/A     81  53  37 S17       29.87R
$$


USA.gov is the U.S. government's official web portal to all federal, state and local government web resources and services.